GW2412 Weather Reports


Display with metric or nautical units.
time (UTC)temp
F
wind
direction
speed
MPH
gust
MPH
rain 1hr
in
rain 24hr
in
rain mn
in
humidity
%
barometer
mb
20260504035509 57 28 14.0 28.0 0.00 0.00 0.00 1 1009.6
20260504035010 57 30 13.0 20.0 0.00 0.00 0.00 1 1009.5
20260504034539 57 355 13.0 20.0 0.00 0.00 0.00 1 1009.2
20260504034013 58 27 9.0 19.0 0.00 0.00 0.00 1 1009.1
20260504033509 57 344 11.0 26.0 0.00 0.00 0.00 1 1008.8
20260504033030 57 19 19.0 28.0 0.00 0.00 0.00 1 1008.9
20260504032512 57 27 21.0 28.0 0.00 0.00 0.00 1 1008.6
20260504032010 57 23 19.0 28.0 0.00 0.00 0.00 1 1008.3
20260504031528 57 30 21.0 30.0 0.00 0.00 0.00 1 1008.3
20260504031009 58 32 24.0 30.0 0.00 0.00 0.00 1 1008.6
20260504030510 58 34 20.0 27.0 0.00 0.00 0.00 1 1008.3
20260504030036 58 45 20.0 31.0 0.00 0.00 0.00 1 1008.3
20260504025510 58 29 21.0 31.0 0.00 0.00 0.00 1 1008.2
20260504025017 58 46 18.0 27.0 0.00 0.00 0.00 1 1008.6
20260504024530 58 52 19.0 31.0 0.00 0.00 0.00 1 1008.5
20260504024012 58 59 20.0 31.0 0.00 0.00 0.00 1 1008.2
20260504023512 59 42 19.0 26.0 0.00 0.00 0.00 1 1008.3
20260504023031 59 43 17.0 25.0 0.00 0.00 0.00 1 1008.1
20260504022512 60 46 18.0 25.0 0.00 0.00 0.00 1 1008.1
20260504022012 61 34 15.0 22.0 0.00 0.00 0.00 1 1008.3
20260504021537 61 44 14.0 19.0 0.00 0.00 0.00 1 1008.3
20260504021012 62 26 15.0 19.0 0.00 0.00 0.00 1 1008.3
20260504020512 62 40 11.0 15.0 0.00 0.00 0.00 1 1008.3
20260504020037 63 31 10.0 17.0 0.00 0.00 0.00 1 1008.4
20260504015512 63 24 13.0 17.0 0.00 0.00 0.00 1 1008.3
20260504015013 64 349 8.0 11.0 0.00 0.00 0.00 1 1008.6
20260504014527 64 342 8.0 13.0 0.00 0.00 0.00 1 1008.7
20260504014014 65 336 9.0 13.0 0.00 0.00 0.00 1 1008.8
20260504013515 65 329 10.0 13.0 0.00 0.00 0.00 1 1008.8
20260504013035 66 340 10.0 17.0 0.00 0.00 0.00 1 1008.8
20260504012510 66 333 13.0 18.0 0.00 0.00 0.00 1 1008.8
20260504012013 67 341 15.0 18.0 0.00 0.00 0.00 1 1008.8
20260504011530 67 355 14.0 19.0 0.00 0.00 0.00 1 1008.8
20260504011009 67 355 13.0 19.0 0.00 0.00 0.00 1 1008.7
20260504010512 68 340 15.0 19.0 0.00 0.00 0.00 1 1008.6
20260504010032 67 360 12.0 20.0 0.00 0.00 0.00 1 1008.7
20260504005512 68 342 15.0 20.0 0.00 0.00 0.00 1 1008.7
20260504005012 68 338 14.0 20.0 0.00 0.00 0.00 1 1008.8
20260504004541 68 344 13.0 21.0 0.00 0.00 0.00 1 1008.7
20260504004013 68 355 17.0 21.0 0.00 0.00 0.00 1 1008.9
20260504003510 69 348 11.0 22.0 0.00 0.00 0.00 1 1009.0
20260504003028 69 344 16.0 22.0 0.00 0.00 0.00 1 1008.9
20260504002511 69 340 13.0 20.0 0.00 0.00 0.00 1 1009.0
20260504002013 69 336 14.0 23.0 0.00 0.00 0.00 1 1009.0
20260504001535 69 312 12.0 25.0 0.00 0.00 0.00 1 1009.2
20260504001011 69 5 16.0 19.0 0.00 0.00 0.00 1 1009.0
20260504000513 69 337 12.0 21.0 0.00 0.00 0.00 1 1009.4
20260504000029 69 332 17.0 22.0 0.00 0.00 0.00 1 1009.4
20260503235509 69 347 13.0 24.0 0.00 0.00 0.00 1 1009.2
20260503235012 69 306 18.0 29.0 0.00 0.00 0.00 1 1009.3
20260503234535 69 352 15.0 20.0 0.00 0.00 0.00 1 1009.4
20260503234013 69 338 16.0 24.0 0.00 0.00 0.00 1 1009.4
20260503233510 69 329 15.0 24.0 0.00 0.00 0.00 1 1009.5
20260503233029 70 336 17.0 24.0 0.00 0.00 0.00 1 1009.3
20260503232513 70 317 16.0 23.0 0.00 0.00 0.00 1 1009.3
20260503232011 69 355 12.0 19.0 0.00 0.00 0.00 1 1009.4
20260503231530 70 317 13.0 24.0 0.00 0.00 0.00 1 1009.5
20260503231013 70 301 17.0 24.0 0.00 0.00 0.00 1 1009.5
20260503230511 69 324 14.0 27.0 0.00 0.00 0.00 1 1009.6
20260503230038 69 311 19.0 27.0 0.00 0.00 0.00 1 1009.5
20260503225513 70 352 15.0 23.0 0.00 0.00 0.00 1 1009.6
20260503225012 70 333 15.0 25.0 0.00 0.00 0.00 1 1009.5
20260503224528 70 300 16.0 25.0 0.00 0.00 0.00 1 1009.8
20260503224011 69 332 17.0 25.0 0.00 0.00 0.00 1 1009.8
20260503223512 70 336 17.0 26.0 0.00 0.00 0.00 1 1009.5
20260503223028 70 294 14.0 22.0 0.00 0.00 0.00 1 1009.7
20260503222512 69 299 15.0 23.0 0.00 0.00 0.00 1 1009.9
20260503222012 69 298 18.0 23.0 0.00 0.00 0.00 1 1009.6
20260503221534 69 355 15.0 23.0 0.00 0.00 0.00 1 1010.0
20260503221014 70 312 17.0 23.0 0.00 0.00 0.00 1 1009.9
20260503220512 69 321 16.0 23.0 0.00 0.00 0.00 1 1009.8
20260503220037 69 342 13.0 22.0 0.00 0.00 0.00 1 1010.1
20260503215513 69 360 13.0 32.0 0.00 0.00 0.00 1 1010.0
20260503215011 69 344 18.0 32.0 0.00 0.00 0.00 1 1010.2
20260503214546 70 287 15.0 28.0 0.00 0.00 0.00 1 1010.3
20260503214013 69 360 19.0 28.0 0.00 0.00 0.00 1 1010.4
20260503213512 69 336 15.0 24.0 0.00 0.00 0.00 1 1010.3
20260503213036 69 309 16.0 23.0 0.00 0.00 0.00 1 1010.6
20260503212513 69 306 11.0 23.0 0.00 0.00 0.00 1 1010.6
20260503212018 70 325 12.0 23.0 0.00 0.00 0.00 1 1010.6
20260503211534 69 335 16.0 20.0 0.00 0.00 0.00 1 1010.4
20260503211015 69 275 10.0 22.0 0.00 0.00 0.00 1 1010.7
20260503210513 69 318 17.0 22.0 0.00 0.00 0.00 1 1010.6
20260503210031 68 326 13.0 28.0 0.00 0.00 0.00 1 1010.8
20260503205517 68 322 16.0 28.0 0.00 0.00 0.00 1 1010.8
20260503205013 69 306 13.0 21.0 0.00 0.00 0.00 1 1011.0
20260503204536 69 294 14.0 30.0 0.00 0.00 0.00 1 1011.1
20260503204013 69 302 18.0 30.0 0.00 0.00 0.00 1 1010.9
20260503203513 68 309 18.0 25.0 0.00 0.00 0.00 1 1011.0
20260503203037 68 306 17.0 24.0 0.00 0.00 0.00 1 1010.9
20260503202516 68 330 10.0 24.0 0.00 0.00 0.00 1 1011.0
20260503202013 68 321 17.0 24.0 0.00 0.00 0.00 1 1010.9
20260503201537 68 275 16.0 21.0 0.00 0.00 0.00 1 1011.3
20260503201014 67 290 10.0 21.0 0.00 0.00 0.00 1 1011.5
20260503200513 67 257 15.0 19.0 0.00 0.00 0.00 1 1011.6
20260503200032 67 311 11.0 20.0 0.00 0.00 0.00 1 1011.6
20260503195513 67 279 13.0 26.0 0.00 0.00 0.00 1 1011.9
20260503195013 67 306 16.0 26.0 0.00 0.00 0.00 1 1011.9
20260503194534 67 324 16.0 22.0 0.00 0.00 0.00 1 1011.7
20260503194014 67 313 12.0 20.0 0.00 0.00 0.00 1 1011.8
20260503193512 66 290 12.0 23.0 0.00 0.00 0.00 1 1011.8
20260503193030 66 355 15.0 24.0 0.00 0.00 0.00 1 1011.8
20260503192514 67 340 16.0 23.0 0.00 0.00 0.00 1 1011.8
20260503192013 66 293 15.0 20.0 0.00 0.00 0.00 1 1012.1
20260503191538 66 311 15.0 26.0 0.00 0.00 0.00 1 1012.1
20260503191014 67 329 16.0 26.0 0.00 0.00 0.00 1 1011.9
20260503190513 66 293 11.0 17.0 0.00 0.00 0.00 1 1012.3
20260503190041 66 338 11.0 20.0 0.00 0.00 0.00 1 1012.4
20260503185510 66 338 16.0 23.0 0.00 0.00 0.00 1 1012.4
20260503185016 64 350 13.0 23.0 0.00 0.00 0.00 1 1012.5
20260503184533 65 327 18.0 23.0 0.00 0.00 0.00 1 1012.4
20260503184012 65 316 14.0 21.0 0.00 0.00 0.00 1 1012.4
20260503183512 64 334 14.0 21.0 0.00 0.00 0.00 1 1012.6
20260503183040 64 315 13.0 17.0 0.00 0.00 0.00 1 1012.8
20260503182513 65 340 11.0 17.0 0.00 0.00 0.00 1 1012.7
20260503182011 65 339 13.0 25.0 0.00 0.00 0.00 1 1012.6
20260503181552 65 327 15.0 25.0 0.00 0.00 0.00 1 1012.7
20260503181011 64 343 11.0 18.0 0.00 0.00 0.00 1 1012.8
20260503180513 65 298 12.0 18.0 0.00 0.00 0.00 1 1013.0
20260503180045 64 360 11.0 20.0 0.00 0.00 0.00 1 1013.1
20260503175516 64 325 11.0 17.0 0.00 0.00 0.00 1 1013.1
20260503175014 65 340 10.0 17.0 0.00 0.00 0.00 1 1013.0
20260503174534 64 335 13.0 20.0 0.00 0.00 0.00 1 1013.1
20260503174015 64 321 14.0 22.0 0.00 0.00 0.00 1 1013.1
20260503173511 64 5 12.0 22.0 0.00 0.00 0.00 1 1013.1
20260503173031 64 355 13.0 22.0 0.00 0.00 0.00 1 1013.1
20260503172511 63 327 17.0 23.0 0.00 0.00 0.00 1 1013.0
20260503172011 63 345 16.0 23.0 0.00 0.00 0.00 1 1013.1
20260503171533 63 355 16.0 22.0 0.00 0.00 0.00 1 1013.3
20260503171014 63 325 16.0 21.0 0.00 0.00 0.00 1 1013.2
20260503170512 63 343 16.0 21.0 0.00 0.00 0.00 1 1013.1
20260503151012 59 338 16.0 20.0 0.00 0.00 0.00 1 1013.3
20260503150514 58 340 14.0 22.0 0.00 0.00 0.00 1 1013.4
20260503131014 46 289 4.0 7.0 0.00 0.00 0.00 1 1014.2
20260503130515 45 286 5.0 6.0 0.00 0.00 0.00 1 1014.1
20260503110523 38 338 4.0 6.0 0.00 0.00 0.00 1 1014.9
20260503081553 41 328 3.0 5.0 0.00 0.00 0.00 1 1016.1
20260503081016 42 303 3.0 5.0 0.00 0.00 0.00 1 1016.1
20260503080514 44 269 1.0 6.0 0.00 0.00 0.00 1 1016.1
20260503072518 37 332 4.0 6.0 0.00 0.00 0.00 1 1016.2
20260503072015 37 332 2.0 6.0 0.00 0.00 0.00 1 1016.1
20260503071551 37 332 4.0 6.0 0.00 0.00 0.00 1 1016.1
20260503071015 38 332 3.0 4.0 0.00 0.00 0.00 1 1016.1
20260503070515 39 332 1.0 3.0 0.00 0.00 0.00 1 1016.1
20260503055015 41 332 4.0 5.0 0.00 0.00 0.00 1 1016.5
20260503054547 41 341 2.0 4.0 0.00 0.00 0.00 1 1016.4
20260503054015 41 341 2.0 6.0 0.00 0.00 0.00 1 1016.4
20260503053519 40 341 3.0 6.0 0.00 0.00 0.00 1 1016.6
20260503053050 39 5 3.0 5.0 0.00 0.00 0.00 1 1016.6
20260503052519 40 9 4.0 5.0 0.00 0.00 0.00 1 1016.6
20260503052019 40 343 2.0 3.0 0.00 0.00 0.00 1 1016.5
20260503051549 40 360 1.0 6.0 0.00 0.00 0.00 1 1016.6
20260503051016 41 338 4.0 6.0 0.00 0.00 0.00 1 1016.7
20260503050516 41 329 4.0 5.0 0.00 0.00 0.00 1 1016.6
20260503050459 41 348 4.0 5.0 0.00 0.00 0.00 1 1016.7
20260503045523 43 333 2.0 4.0 0.00 0.00 0.00 1 1016.8
20260503045020 44 333 3.0 5.0 0.00 0.00 0.00 1 1016.8
20260503044619 44 333 2.0 5.0 0.00 0.00 0.00 1 1016.7
20260503044014 45 333 3.0 5.0 0.00 0.00 0.00 1 1016.7
20260503043514 45 348 3.0 5.0 0.00 0.00 0.00 1 1016.7
20260503043040 47 242 2.0 4.0 0.00 0.00 0.00 1 1016.8
20260503042514 48 242 2.0 7.0 0.00 0.00 0.00 1 1017.0
20260503042014 50 242 3.0 7.0 0.00 0.00 0.00 1 1016.8
20260503041837 50 242 3.0 4.0 0.00 0.00 0.00 1 1016.7
20260503041020 49 242 3.0 5.0 0.00 0.00 0.00 1 1016.8
20260503040524 49 242 4.0 5.0 0.00 0.00 0.00 1 1016.7
20260503040049 49 232 2.0 5.0 0.00 0.00 0.00 1 1016.8